Temperature
2 3 4 4 4 5 6 7 8 9 10 11 11 11 12 12 13 13 14 14 14 14 14 15 15 15 15 15 15 16 16 16 16 16 16 16 16 16 16 16 16 16 16
0 1 2 2 2 3 4 5 5 6 7 9 10 11 11 12 12 13 13 13 13 14 14 14 15 15 15 15 15 15 15 16 16 16 16 16 16 16 16 16 16 16 16
-1 -1 -0 0 0 1 2 3 4 4 5 7 8 9 10 11 12 12 13 13 13 13 13 13 14 14 15 15 15 15 15 15 15 15 16 16 16 16 16 16 16 16 16
-3 -2 -2 -1 -1 -0 0 1 1 3 4 5 6 8 9 10 11 12 12 12 13 13 13 13 13 13 14 15 15 15 15 15 15 15 15 16 16 16 16 16 16 16 16
-4 -4 -3 -3 -2 -2 -1 -1 -0 0 2 3 4 6 7 8 10 11 11 12 12 12 12 13 13 13 13 14 14 15 15 15 15 15 15 15 16 16 16 16 16 16 16
-5 -5 -4 -4 -4 -3 -3 -2 -2 -1 -0 1 2 3 5 7 8 10 11 11 12 12 12 12 12 12 12 13 14 14 15 15 15 15 15 15 15 16 16 16 16 16 16
-6 -6 -5 -5 -5 -5 -4 -4 -4 -3 -2 -1 0 2 5 6 8 9 10 11 11 12 12 12 12 12 12 12 13 14 14 15 15 15 15 15 15 15 16 16 15 15 15
-6 -6 -6 -6 -6 -6 -5 -5 -5 -4 -3 -3 -2 -1 1 4 7 8 9 9 10 11 11 11 12 12 12 12 12 13 14 14 15 15 15 15 15 15 15 15 15 15 15
-7 -7 -7 -7 -7 -6 -6 -6 -5 -5 -4 -3 -2 -2 -0 1 2 7 8 9 9 10 11 11 11 11 11 12 12 12 13 13 14 15 15 15 15 15 15 15 15 15 15
-8 -8 -8 -8 -7 -7 -7 -7 -6 -6 -5 -4 -3 -2 -2 -1 -0 1 6 8 8 9 10 10 11 11 11 11 11 12 12 13 13 14 14 15 15 14 15 15 15 15 15
-8 -8 -8 -8 -8 -8 -8 -7 -7 -6 -5 -5 -4 -3 -2 -1 -1 -0 1 5 7 8 8 9 10 11 11 11 11 11 12 12 13 13 14 14 14 14 14 14 15 15 15
-9 -9 -9 -9 -9 -9 -8 -8 -7 -6 -6 -5 -5 -4 -3 -2 -1 -0 0 1 3 6 7 8 9 10 11 11 11 11 11 12 12 13 13 13 14 14 14 14 14 14 15
-10 -10 -10 -10 -10 -9 -9 -8 -8 -7 -6 -6 -5 -5 -4 -3 -2 -1 -0 0 1 3 5 7 8 9 10 10 10 11 11 11 11 12 12 13 13 13 14 14 14 14 14
-10 -10 -10 -10 -10 -10 -9 -9 -8 -8 -7 -6 -6 -5 -5 -4 -3 -2 -1 -0 1 2 3 5 7 8 9 9 10 10 10 11 11 11 12 12 12 13 13 13 14 14 14
-11 -11 -11 -11 -11 -10 -10 -9 -9 -8 -7 -7 -6 -6 -5 -5 -4 -3 -2 -1 -0 1 2 4 5 7 8 8 9 9 10 10 10 11 11 12 12 12 12 13 13 13 13
-11 -11 -11 -11 -11 -11 -10 -10 -9 -8 -8 -7 -7 -6 -6 -5 -4 -3 -2 -1 -0 0 1 2 4 6 7 7 8 8 9 9 10 10 11 11 12 12 12 12 13 13 13
-12 -12 -12 -12 -12 -11 -11 -10 -10 -9 -8 -7 -7 -7 -6 -6 -5 -4 -3 -2 -1 -0 1 1 3 4 5 6 7 8 8 9 9 10 10 11 11 12 12 12 12 12 12
-12 -12 -12 -12 -12 -12 -11 -11 -10 -9 -8 -8 -7 -7 -7 -6 -6 -5 -4 -2 -2 -1 0 1 2 3 4 5 6 7 7 8 8 9 10 10 11 11 12 12 12 12 12
-13 -13 -13 -13 -13 -12 -12 -11 -10 -9 -8 -8 -8 -7 -7 -7 -6 -5 -4 -3 -2 -1 -0 0 1 2 3 4 5 6 7 7 8 8 9 9 10 11 11 12 12 12 12
-13 -13 -13 -13 -13 -13 -12 -11 -10 -9 -9 -8 -8 -8 -7 -7 -6 -6 -5 -4 -3 -2 -1 -0 0 1 2 3 4 5 6 6 7 7 8 8 9 10 11 11 11 11 11
-13 -13 -13 -13 -13 -13 -12 -11 -10 -10 -9 -8 -8 -8 -7 -7 -7 -6 -5 -4 -3 -2 -1 -1 -0 1 2 2 3 4 5 5 6 7 7 8 8 9 9 9 10 10 11
-13 -13 -13 -13 -13 -13 -12 -11 -10 -10 -9 -8 -8 -8 -8 -7 -7 -7 -6 -5 -4 -3 -2 -1 -1 -0 0 1 2 3 4 5 5 6 6 7 7 8 8 8 9 9 9
-13 -13 -13 -13 -13 -13 -12 -11 -10 -10 -9 -9 -9 -8 -8 -8 -8 -7 -7 -6 -5 -5 -4 -3 -2 -2 -1 0 1 3 4 4 5 5 6 6 6 7 7 7 7 8 8
-13 -13 -13 -13 -13 -13 -12 -11 -10 -10 -9 -9 -9 -9 -8 -8 -8 -8 -7 -7 -6 -6 -5 -5 -4 -3 -2 -1 0 2 3 4 4 5 5 5 5 5 5 5 5 6 6
-13 -13 -13 -13 -13 -13 -12 -11 -10 -10 -10 -9 -9 -9 -9 -8 -8 -8 -8 -8 -8 -7 -6 -6 -5 -4 -3 -2 -1 1 2 3 3 4 4 4 3 3 3 3 3 3 3
-13 -13 -13 -13 -13 -13 -12 -11 -11 -10 -10 -10 -10 -9 -9 -9 -9 -9 -9 -9 -9 -8 -7 -6 -5 -4 -3 -2 -1 0 1 2 2 2 3 3 3 3 2 2 2 2 2
Wind_Speed
16 18 18 18 18 18 17 16 15 15 15 16 16 14 10 9 10 11 11 16 20 19 17 17 17 17 18 18 19 21 21 20 19 17 16 14 13 13 12 12 12 12 13
19 18 16 16 16 18 19 16 15 12 11 12 15 15 14 12 10 11 10 14 20 20 18 17 18 18 19 19 20 21 22 22 21 19 18 17 16 15 13 12 12 12 12
21 20 15 13 16 20 20 16 14 12 11 13 15 16 14 12 12 10 10 9 14 19 20 19 19 19 20 20 20 21 23 24 23 22 20 19 18 17 15 14 13 13 12
23 21 15 13 19 19 16 10 10 11 11 12 13 13 13 13 15 12 10 9 9 12 17 21 20 20 20 21 21 21 22 24 24 24 23 22 21 19 17 16 15 14 13
24 22 16 16 20 16 11 12 12 11 12 12 12 12 12 13 14 14 12 9 8 8 10 18 22 21 20 21 21 22 22 24 25 25 24 24 23 21 19 18 17 15 14
24 22 17 18 18 11 10 11 14 12 12 12 14 13 12 14 13 13 13 10 7 9 10 10 14 17 21 21 21 22 22 23 25 26 25 25 24 23 22 20 19 18 16
23 21 17 16 15 10 12 14 13 14 12 12 11 12 11 13 14 12 11 10 9 8 8 10 10 12 13 22 23 22 23 23 25 26 27 26 26 25 24 23 21 20 18
23 20 18 14 13 10 12 13 14 11 11 11 10 11 7 7 6 8 8 10 11 8 8 8 10 10 11 11 17 23 23 24 25 26 27 28 28 26 25 25 24 22 20
22 20 19 17 14 10 10 13 13 13 12 12 9 7 6 5 11 10 10 7 5 6 7 7 8 10 12 11 12 20 24 25 26 26 27 29 29 28 26 26 25 24 23
22 20 19 19 15 11 12 12 12 12 12 11 10 8 9 9 6 7 11 11 11 9 7 7 7 8 11 11 12 15 21 25 26 27 27 28 29 29 28 27 27 26 25
19 20 21 19 16 12 11 13 13 12 11 11 10 10 11 10 10 8 12 15 12 9 8 7 5 6 7 10 10 13 17 21 24 26 26 27 29 30 30 29 29 28 26
11 18 21 19 18 14 12 12 13 14 12 12 10 10 10 9 8 8 9 13 14 13 12 10 7 5 3 5 9 13 14 17 19 22 24 25 27 29 30 30 30 29 28
10 9 19 17 16 16 16 14 13 13 13 12 11 10 10 11 11 11 11 11 13 13 10 10 7 6 4 3 5 8 10 13 15 16 18 21 23 25 28 30 31 31 30
9 14 19 19 19 20 18 14 11 13 12 12 13 12 11 10 11 11 10 10 11 11 10 10 9 8 5 3 7 10 8 12 13 14 14 17 20 22 25 27 29 31 30
15 18 19 16 17 18 16 12 10 13 13 12 12 12 10 10 10 11 11 10 10 10 11 9 7 7 5 4 7 8 8 12 14 16 16 16 17 20 23 25 27 29 30
16 15 14 14 14 15 14 12 11 13 14 13 11 12 10 10 11 11 11 10 10 11 10 7 7 9 8 7 7 5 8 12 15 17 18 18 18 19 22 24 26 29 30
14 12 13 13 15 15 13 14 13 15 16 15 13 12 11 12 11 11 11 10 9 9 11 9 8 9 10 8 6 4 5 6 8 15 18 19 19 20 21 23 26 28 29
13 14 13 14 15 16 15 15 15 16 17 15 13 11 11 11 13 11 10 11 10 9 9 10 7 7 9 8 6 5 4 3 4 10 16 18 19 20 21 23 25 27 29
11 13 11 13 15 16 16 15 14 16 17 14 12 10 11 12 12 11 13 11 9 9 7 7 7 6 6 6 5 4 3 3 3 5 10 13 16 18 19 21 23 26 28
13 12 12 13 14 16 16 14 15 15 15 13 11 9 10 11 12 13 11 11 10 9 7 6 6 5 6 6 5 4 3 3 3 2 4 5 9 13 16 19 22 24 26
15 12 13 13 13 14 14 16 15 15 14 12 10 9 10 14 17 14 11 10 10 7 6 4 4 4 4 3 4 3 4 4 3 3 4 4 5 6 7 15 20 25 28
12 12 12 13 14 15 23 26 20 12 12 11 9 8 10 11 15 18 18 17 15 10 7 5 3 3 4 3 3 3 4 5 4 4 5 4 5 8 6 9 21 28 32
11 11 11 12 13 16 26 26 24 14 11 9 9 8 9 12 13 10 14 18 18 21 17 9 6 6 6 6 5 5 5 5 4 6 8 6 6 9 8 16 26 29 32
10 10 11 12 12 17 26 25 22 13 10 10 9 8 9 10 12 12 11 12 13 14 16 12 10 11 11 10 7 5 3 2 4 3 5 7 7 9 10 12 25 29 31
10 9 10 12 12 15 24 24 19 9 9 10 11 11 10 8 18 20 14 12 13 13 17 21 21 20 22 23 16 4 1 6 6 3 3 5 8 9 9 9 17 27 29
11 12 12 11 12 12 22 25 20 8 9 9 10 13 16 17 21 21 13 12 13 12 13 14 16 19 17 19 24 14 6 3 5 3 3 4 7 6 6 6 8 13 19
Wind_Direction
349 345 338 336 335 340 340 334 327 327 328 323 320 317 302 286 269 257 251 216 203 203 214 225 227 228 226 222 215 208 201 198 198 197 194 189 184 180 180 182 186 188 191
346 342 335 333 335 341 335 328 326 327 324 324 322 320 314 305 288 272 253 225 213 206 210 222 229 231 230 227 222 213 206 201 199 198 195 191 186 182 182 184 185 186 189
344 341 334 332 338 338 333 331 327 330 328 328 324 321 315 310 303 292 273 236 218 214 211 216 225 231 232 230 227 219 210 204 199 197 196 192 188 185 185 185 185 185 185
344 341 335 334 339 338 336 333 335 338 332 326 322 316 311 306 303 297 287 265 227 212 214 215 219 226 231 232 230 226 216 207 201 198 197 194 190 187 186 186 185 184 183
343 339 333 337 339 337 337 337 338 334 328 324 318 309 305 302 297 293 287 276 258 227 204 211 215 221 227 231 232 229 223 213 205 200 198 197 193 188 188 188 186 185 184
340 337 334 339 339 336 337 335 334 332 327 323 318 311 304 293 283 278 277 274 263 243 222 206 205 219 225 228 232 232 227 220 211 203 200 199 197 192 190 189 189 188 187
338 337 338 337 337 335 333 333 334 329 329 327 322 319 302 281 265 259 258 259 258 250 232 216 203 202 213 225 228 230 229 225 217 208 202 200 199 196 193 192 191 191 191
338 340 340 337 334 331 330 334 332 329 328 334 325 320 315 307 332 289 262 245 243 241 239 224 210 207 208 204 220 225 229 228 222 213 207 203 200 200 197 195 194 195 195
337 338 338 339 333 332 329 331 329 332 326 323 320 316 316 322 330 309 313 304 293 262 241 231 218 211 213 209 204 217 222 226 225 219 212 207 204 203 201 199 197 198 198
334 336 341 339 334 330 327 328 331 324 321 320 319 307 298 297 294 309 313 320 320 304 278 251 230 215 212 213 211 208 215 220 225 222 216 211 208 206 204 202 200 199 198
333 338 341 337 332 328 326 325 323 319 317 314 314 312 305 293 272 275 292 304 312 309 310 295 266 230 211 208 209 211 210 217 223 223 220 215 211 208 207 203 200 200 198
332 338 337 335 329 326 325 323 321 317 315 312 312 310 306 299 290 279 279 292 300 304 309 303 292 268 232 208 211 213 211 214 221 223 220 218 215 211 208 205 201 199 198
333 330 335 331 327 325 324 323 322 318 314 315 313 310 307 299 297 288 279 281 287 295 299 298 289 282 258 223 218 218 214 213 220 226 223 217 215 214 211 207 202 200 199
326 328 332 328 327 325 325 324 322 321 318 317 312 310 307 303 300 294 285 280 279 282 286 283 296 285 270 238 221 217 215 214 218 226 228 222 217 215 213 209 204 200 199
327 330 328 327 326 325 324 324 322 322 320 317 311 308 311 307 302 298 290 279 270 272 275 281 288 292 293 272 229 213 210 216 217 223 228 227 222 218 214 210 204 199 196
325 326 327 327 326 325 325 323 321 321 320 319 314 312 314 314 308 303 295 286 274 265 266 270 279 292 301 296 264 233 218 219 221 222 225 227 225 221 217 212 204 198 194
324 325 327 328 328 327 327 323 320 323 321 317 315 316 317 316 312 309 303 293 283 272 265 269 273 286 291 291 283 264 237 222 224 222 222 225 225 223 219 213 205 197 191
321 323 326 328 328 328 324 321 321 326 321 317 316 317 321 320 316 312 310 303 294 284 269 266 269 276 282 281 269 254 232 216 216 222 221 221 222 220 216 212 203 194 187
320 323 326 327 327 324 321 317 320 319 317 314 314 317 321 321 320 318 314 308 302 293 279 267 265 266 273 273 268 262 227 206 199 210 214 216 215 213 209 202 194 186 180
325 326 324 324 322 319 314 313 318 317 317 313 313 315 320 320 321 320 316 317 313 304 291 276 265 261 265 261 242 232 217 197 179 157 159 165 177 182 183 180 177 170 164
327 321 322 321 317 316 315 317 317 320 317 314 314 317 322 331 337 339 339 339 334 324 313 297 287 279 273 264 242 223 210 180 166 162 144 145 138 135 144 144 145 144 140
320 321 320 318 318 323 320 323 328 323 320 319 321 326 333 340 350 353 357 3 5 3 358 347 329 322 320 304 286 251 197 184 186 167 139 120 117 116 113 117 128 128 126
320 319 316 316 316 317 325 329 334 342 333 332 333 341 351 352 4 3 6 12 14 21 27 22 16 6 349 334 309 269 224 190 168 154 135 114 108 109 104 114 118 118 119
320 317 317 319 319 324 331 335 348 354 345 346 349 1 -0 356 13 27 20 18 17 18 23 26 25 17 8 355 327 286 250 157 113 117 127 117 109 100 99 106 114 115 116
323 321 323 324 325 328 334 344 2 352 357 357 2 8 9 13 37 39 29 23 21 17 19 26 29 27 22 20 15 360 203 160 141 81 44 107 116 96 77 79 99 108 112
335 334 332 332 331 331 341 354 12 8 11 9 11 10 21 38 43 44 33 25 28 19 14 17 22 23 22 21 24 23 7 139 133 97 12 99 125 110 80 44 58 86 102
Height
1518 1514 1511 1508 1505 1502 1499 1497 1495 1493 1492 1491 1491 1492 1492 1493 1494 1495 1496 1497 1499 1501 1503 1505 1507 1510 1513 1516 1519 1522 1525 1528 1531 1534 1537 1540 1543 1546 1549 1552 1555 1558 1561
1517 1512 1508 1505 1502 1498 1496 1493 1491 1489 1487 1486 1485 1485 1485 1486 1487 1489 1490 1491 1492 1494 1497 1499 1501 1503 1507 1510 1513 1517 1520 1524 1527 1530 1533 1536 1539 1542 1546 1549 1552 1556 1559
1515 1511 1506 1503 1499 1495 1492 1489 1487 1484 1482 1480 1479 1478 1478 1479 1480 1482 1484 1485 1486 1488 1490 1493 1495 1497 1501 1504 1508 1511 1515 1519 1522 1526 1529 1532 1535 1539 1542 1546 1549 1552 1555
1514 1509 1505 1501 1497 1492 1489 1486 1483 1480 1477 1475 1473 1472 1472 1472 1473 1475 1476 1478 1480 1482 1484 1487 1489 1491 1494 1498 1501 1505 1509 1513 1517 1521 1524 1528 1531 1535 1538 1542 1546 1549 1552
1512 1508 1503 1499 1495 1490 1487 1483 1480 1477 1473 1470 1468 1466 1466 1465 1466 1467 1469 1471 1474 1476 1479 1481 1483 1486 1488 1491 1495 1499 1503 1507 1512 1515 1519 1523 1527 1530 1534 1538 1542 1545 1549
1511 1507 1502 1498 1493 1488 1484 1480 1477 1474 1471 1468 1464 1461 1459 1458 1458 1460 1462 1464 1467 1470 1473 1475 1478 1480 1482 1485 1488 1492 1496 1501 1505 1510 1514 1518 1522 1526 1530 1534 1538 1542 1545
1510 1505 1501 1496 1492 1487 1483 1479 1475 1472 1469 1466 1461 1456 1453 1452 1452 1453 1455 1458 1460 1464 1467 1469 1472 1474 1477 1479 1482 1485 1489 1494 1499 1503 1508 1512 1517 1521 1525 1529 1533 1537 1541
1509 1504 1500 1495 1490 1486 1481 1478 1474 1471 1468 1466 1463 1457 1452 1448 1447 1447 1449 1451 1454 1457 1460 1463 1466 1468 1471 1473 1476 1479 1483 1487 1492 1496 1501 1506 1511 1515 1519 1524 1529 1533 1537
1507 1503 1498 1493 1489 1484 1480 1476 1473 1470 1466 1464 1464 1462 1458 1452 1446 1442 1442 1445 1448 1451 1453 1456 1459 1462 1465 1467 1470 1473 1476 1480 1485 1489 1494 1499 1504 1509 1514 1518 1524 1528 1532
1504 1501 1496 1491 1486 1482 1478 1474 1471 1468 1465 1462 1460 1460 1459 1456 1453 1444 1437 1437 1439 1442 1445 1449 1452 1455 1458 1461 1464 1467 1471 1474 1478 1483 1487 1492 1498 1503 1508 1513 1518 1523 1527
1502 1498 1493 1488 1484 1480 1476 1472 1468 1466 1463 1460 1458 1456 1454 1452 1450 1448 1441 1433 1433 1435 1438 1441 1445 1448 1452 1455 1458 1461 1464 1468 1471 1476 1481 1486 1491 1496 1502 1507 1512 1517 1521
1498 1494 1490 1485 1481 1477 1473 1469 1465 1462 1460 1457 1454 1452 1450 1448 1446 1444 1441 1436 1431 1428 1431 1433 1437 1441 1444 1448 1451 1455 1458 1462 1466 1470 1474 1479 1485 1490 1495 1501 1506 1510 1515
1495 1491 1486 1482 1477 1474 1470 1466 1462 1458 1456 1453 1450 1448 1445 1443 1441 1440 1438 1435 1431 1426 1425 1427 1430 1434 1438 1441 1445 1448 1452 1455 1459 1464 1468 1473 1478 1483 1489 1494 1499 1504 1509
1494 1489 1484 1479 1474 1470 1466 1462 1458 1455 1452 1449 1446 1443 1440 1437 1436 1434 1433 1432 1429 1426 1422 1422 1424 1428 1432 1435 1438 1442 1445 1449 1453 1457 1461 1466 1471 1476 1482 1487 1493 1498 1503
1492 1486 1481 1476 1471 1467 1463 1459 1455 1451 1447 1444 1441 1438 1435 1432 1429 1428 1426 1426 1426 1423 1420 1418 1420 1422 1426 1429 1433 1435 1439 1442 1446 1450 1454 1459 1464 1469 1474 1480 1486 1491 1497
1490 1484 1478 1473 1468 1463 1459 1455 1451 1447 1444 1440 1437 1433 1430 1427 1424 1422 1420 1419 1419 1418 1416 1414 1416 1417 1420 1422 1426 1429 1432 1436 1439 1442 1447 1451 1456 1461 1467 1473 1479 1484 1490
1487 1481 1476 1470 1465 1460 1456 1452 1448 1444 1440 1436 1433 1430 1426 1422 1419 1416 1414 1412 1411 1411 1410 1409 1410 1411 1413 1415 1419 1422 1425 1429 1432 1435 1439 1443 1448 1453 1459 1465 1471 1477 1483
1484 1479 1474 1468 1463 1458 1453 1449 1444 1440 1436 1432 1429 1426 1422 1418 1415 1412 1409 1406 1405 1404 1404 1403 1404 1405 1407 1410 1412 1415 1419 1422 1425 1428 1432 1436 1440 1445 1450 1456 1463 1469 1475
1481 1476 1471 1465 1460 1454 1450 1446 1442 1437 1433 1429 1426 1423 1419 1415 1411 1407 1404 1402 1399 1398 1397 1397 1397 1399 1401 1404 1406 1409 1412 1415 1418 1421 1425 1428 1432 1437 1442 1448 1455 1461 1467
1478 1473 1468 1463 1457 1452 1447 1443 1439 1434 1430 1426 1423 1420 1416 1412 1408 1404 1401 1397 1394 1392 1391 1391 1392 1393 1395 1397 1400 1402 1405 1409 1412 1416 1419 1422 1426 1430 1434 1440 1446 1453 1459
1476 1470 1465 1459 1454 1449 1445 1441 1436 1431 1427 1423 1420 1417 1413 1410 1406 1402 1398 1394 1391 1388 1386 1386 1386 1387 1389 1391 1394 1397 1400 1403 1407 1410 1414 1417 1420 1423 1428 1433 1439 1446 1453
1473 1468 1462 1457 1451 1447 1442 1437 1433 1428 1424 1421 1418 1414 1411 1407 1403 1398 1395 1391 1388 1385 1383 1382 1382 1383 1384 1386 1388 1391 1394 1398 1401 1405 1408 1412 1416 1420 1424 1429 1434 1440 1446
1471 1465 1460 1455 1449 1444 1439 1434 1429 1424 1421 1419 1416 1413 1409 1406 1401 1397 1393 1389 1386 1383 1382 1381 1380 1379 1380 1381 1382 1384 1387 1391 1395 1399 1404 1409 1413 1416 1422 1427 1431 1437 1442
1470 1464 1458 1453 1448 1442 1437 1431 1427 1423 1420 1418 1415 1413 1409 1405 1402 1397 1393 1389 1386 1383 1381 1379 1378 1377 1377 1376 1378 1380 1382 1386 1390 1395 1400 1405 1410 1414 1420 1426 1431 1435 1440
1469 1463 1458 1452 1447 1441 1436 1431 1426 1423 1420 1418 1416 1413 1410 1406 1403 1399 1395 1391 1388 1384 1382 1380 1378 1376 1375 1374 1374 1375 1378 1381 1384 1389 1394 1399 1406 1411 1418 1425 1431 1436 1440
1469 1464 1458 1453 1447 1442 1437 1432 1428 1424 1422 1420 1417 1414 1411 1409 1406 1402 1398 1395 1391 1388 1384 1381 1379 1376 1374 1373 1372 1372 1374 1377 1379 1384 1388 1394 1401 1408 1418 1425 1431 1437 1442